CXA300 EDDH-EPKK

Flight info

Callsign CXA300
Flight time 1h 36m
Altitude 25000
Route AMLUH2G/33 AMLUH L619 BUMIL ERNUD M748 BOLBO L986 LASIS T714 MOFKE
Aircraft B350/L-V/N

Departure

Time 2026-04-24 19:56
Airport Hamburg Helmut Schmidt Airport (EDDH)

Arrival

Time 2026-04-24 21:32
Airport Kraków John Paul II International Airport (EPKK)
Time Latitude Longitude Altitude Speed Heading
2026-04-24 19:18 53.62647 9.98989 37 ft 0 kts 63°
2026-04-24 19:41 53.62651 9.99004 38 ft 4 kts 63°
2026-04-24 19:41 53.62669 9.99063 37 ft 0 kts 63°
2026-04-24 19:41 53.62670 9.99067 37 ft 0 kts 63°
2026-04-24 19:42 53.62674 9.99070 37 ft 2 kts
2026-04-24 19:42 53.62667 9.99040 37 ft 5 kts 225°
2026-04-24 19:42 53.62647 9.98989 37 ft 0 kts 242°
2026-04-24 19:42 53.62646 9.98987 37 ft 0 kts 242°
2026-04-24 19:44 53.62646 9.98986 37 ft 0 kts 241°
2026-04-24 19:44 53.62639 9.98994 38 ft 3 kts 68°
2026-04-24 19:45 53.62657 9.99055 38 ft 3 kts 81°
2026-04-24 19:45 53.62634 9.99096 39 ft 1 kts 153°
2026-04-24 19:45 53.62629 9.99101 39 ft 1 kts 153°
2026-04-24 19:45 53.62603 9.99123 40 ft 6 kts 153°
2026-04-24 19:46 53.62574 9.99190 40 ft 9 kts 93°
2026-04-24 19:46 53.62582 9.99271 39 ft 11 kts 80°
2026-04-24 19:46 53.62598 9.99420 37 ft 12 kts 79°
2026-04-24 19:46 53.62616 9.99568 36 ft 9 kts 78°
2026-04-24 19:47 53.62624 9.99633 36 ft 8 kts 78°
2026-04-24 19:47 53.62634 9.99727 35 ft 0 kts 78°
2026-04-24 19:47 53.62636 9.99744 35 ft 5 kts 78°
2026-04-24 19:47 53.62650 9.99848 35 ft 12 kts 76°
2026-04-24 19:48 53.62668 9.99939 34 ft 1 kts 357°
2026-04-24 19:48 53.62669 9.99902 34 ft 4 kts 251°
2026-04-24 19:48 53.62632 9.99787 35 ft 0 kts 264°
2026-04-24 19:49 53.62642 9.99770 35 ft 0 kts 48°
2026-04-24 19:53 53.62648 9.99783 35 ft 5 kts 50°
2026-04-24 19:53 53.62726 9.99868 32 ft 0 kts 332°
2026-04-24 19:55 53.62730 9.99864 31 ft 5 kts 331°
2026-04-24 19:55 53.62863 9.99750 27 ft 54 kts 330°
2026-04-24 19:56 53.63439 9.99254 94 ft 118 kts 327°
2026-04-24 19:56 53.64211 9.98523 502 ft 139 kts 328°
2026-04-24 19:56 53.65088 9.97703 1087 ft 153 kts 331°
2026-04-24 19:56 53.66048 9.96920 1725 ft 158 kts 332°
2026-04-24 19:57 53.67015 9.96134 2395 ft 156 kts 333°
2026-04-24 19:57 53.67968 9.95339 3050 ft 153 kts 334°
2026-04-24 19:57 53.68947 9.94740 3655 ft 152 kts 351°
2026-04-24 19:57 53.69987 9.94699 4249 ft 151 kts 355°
2026-04-24 19:58 53.71014 9.94691 4809 ft 150 kts 356°
2026-04-24 19:58 53.72052 9.94863 5289 ft 157 kts 17°
2026-04-24 19:58 53.72827 9.96267 5713 ft 179 kts 59°
2026-04-24 19:58 53.73247 9.98256 6152 ft 183 kts 62°
2026-04-24 19:59 53.73677 10.00290 6619 ft 188 kts 62°
2026-04-24 19:59 53.74120 10.02393 7145 ft 192 kts 66°
2026-04-24 19:59 53.74032 10.04668 7621 ft 208 kts 110°
2026-04-24 19:59 53.73250 10.06733 8101 ft 213 kts 119°
2026-04-24 20:00 53.72477 10.08862 8572 ft 214 kts 117°
2026-04-24 20:00 53.71736 10.11026 9021 ft 215 kts 116°
2026-04-24 20:00 53.71001 10.13209 9470 ft 216 kts 116°
2026-04-24 20:00 53.70259 10.15425 9894 ft 218 kts 116°
2026-04-24 20:01 53.69508 10.17667 10351 ft 222 kts 116°
2026-04-24 20:01 53.68667 10.19872 10801 ft 226 kts 135°
2026-04-24 20:01 53.67308 10.21083 11232 ft 224 kts 167°
2026-04-24 20:01 53.65821 10.21765 11692 ft 225 kts 168°
2026-04-24 20:02 53.64860 10.22471 11971 ft 229 kts 145°
2026-04-24 20:02 53.63378 10.25047 12549 ft 230 kts 127°
2026-04-24 20:02 53.62415 10.27158 12957 ft 231 kts 125°
2026-04-24 20:02 53.61450 10.29364 13360 ft 233 kts 124°
2026-04-24 20:03 53.60491 10.31581 13814 ft 237 kts 124°
2026-04-24 20:03 53.59528 10.33813 14337 ft 238 kts 124°
2026-04-24 20:03 53.58558 10.36058 14869 ft 237 kts 124°
2026-04-24 20:03 53.57602 10.38270 15353 ft 237 kts 125°
2026-04-24 20:04 53.56633 10.40513 15806 ft 239 kts 125°
2026-04-24 20:04 53.55659 10.42764 16239 ft 241 kts 125°
2026-04-24 20:04 53.54673 10.45038 16666 ft 242 kts 125°
2026-04-24 20:04 53.53680 10.47330 17077 ft 243 kts 125°
2026-04-24 20:05 53.52697 10.49594 17487 ft 244 kts 126°
2026-04-24 20:05 53.51695 10.51900 17900 ft 245 kts 126°
2026-04-24 20:05 53.50701 10.54187 18295 ft 245 kts 126°
2026-04-24 20:05 53.49692 10.56506 18651 ft 247 kts 126°
2026-04-24 20:06 53.48676 10.58840 19007 ft 249 kts 126°
2026-04-24 20:06 53.47646 10.61201 19341 ft 251 kts 126°
2026-04-24 20:06 53.46624 10.63545 19667 ft 253 kts 126°
2026-04-24 20:06 53.45578 10.65940 20032 ft 257 kts 127°
2026-04-24 20:07 53.44869 10.67563 20297 ft 258 kts 127°
2026-04-24 20:07 53.43460 10.70782 20845 ft 258 kts 128°
2026-04-24 20:07 53.42405 10.73191 21243 ft 258 kts 128°
2026-04-24 20:07 53.41347 10.75604 21601 ft 260 kts 128°
2026-04-24 20:08 53.40264 10.78073 21936 ft 262 kts 128°
2026-04-24 20:08 53.39195 10.80507 22269 ft 264 kts 129°
2026-04-24 20:08 53.38095 10.83007 22602 ft 266 kts 129°
2026-04-24 20:08 53.37005 10.85484 22927 ft 268 kts 129°
2026-04-24 20:09 53.35905 10.87982 23258 ft 268 kts 129°
2026-04-24 20:09 53.34787 10.90515 23573 ft 270 kts 129°
2026-04-24 20:09 53.33670 10.93045 23871 ft 272 kts 129°
2026-04-24 20:09 53.32550 10.95580 24154 ft 274 kts 129°
2026-04-24 20:10 53.31424 10.98126 24446 ft 275 kts 129°
2026-04-24 20:10 53.30283 11.00701 24729 ft 277 kts 129°
2026-04-24 20:10 53.29129 11.03305 25017 ft 279 kts 129°
2026-04-24 20:10 53.27963 11.05931 25092 ft 291 kts 129°
2026-04-24 20:11 53.26734 11.08696 25110 ft 303 kts 129°
2026-04-24 20:11 53.25458 11.11564 25108 ft 315 kts 129°
2026-04-24 20:11 53.24126 11.14558 25105 ft 326 kts 129°
2026-04-24 20:11 53.22752 11.17642 25110 ft 336 kts 129°
2026-04-24 20:12 53.21341 11.20802 25102 ft 345 kts 128°
2026-04-24 20:12 53.19900 11.24029 25108 ft 352 kts 128°
2026-04-24 20:12 53.18429 11.27317 25111 ft 359 kts 128°
2026-04-24 20:12 53.16928 11.30668 25109 ft 365 kts 128°
2026-04-24 20:13 53.15404 11.34065 25100 ft 369 kts 128°
2026-04-24 20:13 53.13870 11.37480 25096 ft 370 kts 128°
2026-04-24 20:13 53.12318 11.40930 25096 ft 371 kts 128°
2026-04-24 20:13 53.10780 11.44344 25106 ft 371 kts 128°
2026-04-24 20:14 53.09224 11.47794 25099 ft 372 kts 128°
2026-04-24 20:14 53.07681 11.51209 25097 ft 373 kts 128°
2026-04-24 20:14 53.06137 11.54624 25101 ft 374 kts 128°
2026-04-24 20:14 53.04562 11.58102 25103 ft 373 kts 128°
2026-04-24 20:15 53.03009 11.61527 25094 ft 372 kts 128°
2026-04-24 20:15 53.01456 11.64946 25096 ft 372 kts 128°
2026-04-24 20:15 52.99908 11.68352 25085 ft 371 kts 129°
2026-04-24 20:15 52.98369 11.71732 25096 ft 370 kts 129°
2026-04-24 20:16 52.96827 11.75113 25090 ft 369 kts 129°
2026-04-24 20:16 52.95269 11.78525 25093 ft 369 kts 129°
2026-04-24 20:16 52.93732 11.81887 25091 ft 368 kts 129°
2026-04-24 20:16 52.92197 11.85239 25091 ft 368 kts 129°
2026-04-24 20:17 52.90644 11.88628 25090 ft 367 kts 129°
2026-04-24 20:17 52.87576 11.95309 25088 ft 367 kts 129°
2026-04-24 20:17 52.86043 11.98640 25087 ft 366 kts 128°
2026-04-24 20:18 52.85011 12.00879 25089 ft 366 kts 128°
2026-04-24 20:18 52.82959 12.05327 25085 ft 366 kts 129°
2026-04-24 20:18 52.81412 12.08676 25087 ft 367 kts 129°
2026-04-24 20:18 52.79863 12.12025 25086 ft 368 kts 129°
2026-04-24 20:19 52.78311 12.15375 25083 ft 369 kts 129°
2026-04-24 20:19 52.76761 12.18718 25086 ft 370 kts 129°
2026-04-24 20:19 52.75195 12.22087 25087 ft 371 kts 129°
2026-04-24 20:19 52.73619 12.25476 25091 ft 372 kts 128°
2026-04-24 20:20 52.72062 12.28818 25083 ft 372 kts 128°
2026-04-24 20:20 52.70487 12.32196 25084 ft 373 kts 128°
2026-04-24 20:20 52.68910 12.35576 25091 ft 373 kts 128°
2026-04-24 20:20 52.67323 12.38970 25083 ft 374 kts 128°
2026-04-24 20:21 52.65731 12.42368 25081 ft 374 kts 128°
2026-04-24 20:21 52.64163 12.45713 25078 ft 374 kts 128°
2026-04-24 20:21 52.62568 12.49111 25082 ft 374 kts 128°
2026-04-24 20:21 52.60979 12.52491 25075 ft 374 kts 128°
2026-04-24 20:22 52.59401 12.55843 25077 ft 374 kts 128°
2026-04-24 20:22 52.57810 12.59219 25086 ft 374 kts 128°
2026-04-24 20:22 52.56221 12.62586 25073 ft 375 kts 128°
2026-04-24 20:22 52.54628 12.65957 25075 ft 375 kts 129°
2026-04-24 20:23 52.53021 12.69354 25070 ft 375 kts 129°
2026-04-24 20:23 52.51430 12.72710 25067 ft 375 kts 129°
2026-04-24 20:23 52.49842 12.76057 25068 ft 375 kts 129°
2026-04-24 20:23 52.48245 12.79419 25071 ft 375 kts 129°
2026-04-24 20:24 52.47184 12.81650 25071 ft 375 kts 129°
2026-04-24 20:24 52.45041 12.86152 25070 ft 375 kts 129°
2026-04-24 20:24 52.43441 12.89505 25075 ft 375 kts 129°
2026-04-24 20:24 52.41837 12.92862 25066 ft 375 kts 129°
2026-04-24 20:25 52.40247 12.96187 25068 ft 375 kts 129°
2026-04-24 20:25 52.38627 12.99571 25075 ft 375 kts 129°
2026-04-24 20:25 52.37028 13.02905 25071 ft 375 kts 129°
2026-04-24 20:25 52.35428 13.06238 25064 ft 376 kts 129°
2026-04-24 20:26 52.33812 13.09599 25070 ft 376 kts 129°
2026-04-24 20:26 52.32200 13.12947 25074 ft 376 kts 129°
2026-04-24 20:26 52.30579 13.16311 25070 ft 376 kts 129°
2026-04-24 20:26 52.28960 13.19664 25075 ft 376 kts 129°
2026-04-24 20:27 52.27358 13.22979 25074 ft 376 kts 129°
2026-04-24 20:27 52.25741 13.26322 25074 ft 376 kts 129°
2026-04-24 20:27 52.24109 13.29688 25076 ft 376 kts 129°
2026-04-24 20:27 52.22498 13.33008 25073 ft 377 kts 129°
2026-04-24 20:28 52.20886 13.36327 25081 ft 377 kts 129°
2026-04-24 20:28 52.19263 13.39664 25081 ft 377 kts 129°
2026-04-24 20:28 52.17638 13.43001 25079 ft 377 kts 129°
2026-04-24 20:28 52.15991 13.46376 25076 ft 378 kts 129°
2026-04-24 20:29 52.14906 13.48599 25078 ft 378 kts 129°
2026-04-24 20:29 52.12745 13.53018 25077 ft 378 kts 129°
2026-04-24 20:29 52.11100 13.56378 25073 ft 378 kts 129°
2026-04-24 20:29 52.09464 13.59714 25070 ft 378 kts 129°
2026-04-24 20:30 52.07831 13.63041 25072 ft 378 kts 129°
2026-04-24 20:30 52.06206 13.66345 25072 ft 378 kts 129°
2026-04-24 20:30 52.04556 13.69698 25069 ft 379 kts 129°
2026-04-24 20:30 52.02929 13.72998 25070 ft 378 kts 129°
2026-04-24 20:31 52.01281 13.76339 25071 ft 378 kts 129°
2026-04-24 20:31 51.99648 13.79642 25073 ft 378 kts 129°
2026-04-24 20:31 51.98000 13.82973 25067 ft 379 kts 129°
2026-04-24 20:31 51.96361 13.86280 25075 ft 378 kts 130°
2026-04-24 20:32 51.94704 13.89622 25077 ft 379 kts 130°
2026-04-24 20:32 51.93062 13.92928 25070 ft 379 kts 130°
2026-04-24 20:32 51.91409 13.96251 25067 ft 379 kts 129°
2026-04-24 20:32 51.89772 13.99538 25067 ft 379 kts 129°
2026-04-24 20:33 51.88128 14.02834 25070 ft 378 kts 129°
2026-04-24 20:33 51.86476 14.06142 25066 ft 378 kts 129°
2026-04-24 20:33 51.84832 14.09431 25069 ft 378 kts 129°
2026-04-24 20:33 51.83170 14.12751 25067 ft 378 kts 129°
2026-04-24 20:34 51.81521 14.16040 25070 ft 377 kts 129°
2026-04-24 20:34 51.79876 14.19318 25073 ft 377 kts 129°
2026-04-24 20:34 51.78229 14.22595 25071 ft 377 kts 129°
2026-04-24 20:34 51.76578 14.25875 25069 ft 378 kts 129°
2026-04-24 20:35 51.74927 14.29153 25073 ft 377 kts 129°
2026-04-24 20:35 51.73284 14.32408 25071 ft 377 kts 129°
2026-04-24 20:35 51.71625 14.35694 25076 ft 377 kts 129°
2026-04-24 20:35 51.69974 14.38957 25072 ft 378 kts 129°
2026-04-24 20:36 51.68321 14.42221 25075 ft 378 kts 129°
2026-04-24 20:36 51.66654 14.45509 25071 ft 378 kts 129°
2026-04-24 20:36 51.65007 14.48753 25085 ft 378 kts 129°
2026-04-24 20:36 51.63344 14.52025 25079 ft 378 kts 129°
2026-04-24 20:37 51.61689 14.55275 25077 ft 378 kts 129°
2026-04-24 20:37 51.60028 14.58534 25085 ft 378 kts 129°
2026-04-24 20:37 51.58350 14.61821 25080 ft 378 kts 129°
2026-04-24 20:37 51.56694 14.65063 25084 ft 378 kts 130°
2026-04-24 20:38 51.55033 14.68309 25075 ft 378 kts 130°
2026-04-24 20:38 51.53358 14.71579 25077 ft 378 kts 130°
2026-04-24 20:38 51.51696 14.74819 25077 ft 378 kts 130°
2026-04-24 20:38 51.50018 14.78086 25087 ft 378 kts 130°
2026-04-24 20:39 51.48357 14.81317 25082 ft 378 kts 129°
2026-04-24 20:39 51.46687 14.84559 25083 ft 378 kts 130°
2026-04-24 20:39 51.45024 14.87785 25087 ft 378 kts 129°
2026-04-24 20:39 51.43359 14.91011 25085 ft 378 kts 129°
2026-04-24 20:40 51.41672 14.94275 25090 ft 378 kts 129°
2026-04-24 20:40 51.40266 14.97729 25051 ft 376 kts 111°
2026-04-24 20:40 51.39291 15.01570 25081 ft 375 kts 110°
2026-04-24 20:40 51.38306 15.05430 25102 ft 374 kts 110°
2026-04-24 20:41 51.37308 15.09312 25091 ft 375 kts 110°
2026-04-24 20:41 51.36317 15.13147 25086 ft 375 kts 110°
2026-04-24 20:41 51.35329 15.16966 25083 ft 375 kts 110°
2026-04-24 20:41 51.34330 15.20819 25079 ft 376 kts 110°
2026-04-24 20:42 51.33327 15.24680 25081 ft 376 kts 110°
2026-04-24 20:42 51.32327 15.28522 25083 ft 376 kts 110°
2026-04-24 20:42 51.31327 15.32359 25074 ft 376 kts 110°
2026-04-24 20:42 51.30326 15.36191 25075 ft 376 kts 110°
2026-04-24 20:43 51.29323 15.40026 25083 ft 376 kts 110°
2026-04-24 20:43 51.28310 15.43890 25085 ft 376 kts 110°
2026-04-24 20:43 51.27308 15.47709 25080 ft 376 kts 110°
2026-04-24 20:43 51.26300 15.51541 25088 ft 376 kts 110°
2026-04-24 20:44 51.25280 15.55419 25084 ft 377 kts 110°
2026-04-24 20:44 51.24280 15.59208 25080 ft 377 kts 110°
2026-04-24 20:44 51.23255 15.63087 25094 ft 376 kts 109°
2026-04-24 20:44 51.22236 15.66936 25077 ft 377 kts 110°
2026-04-24 20:45 51.21220 15.70768 25071 ft 377 kts 110°
2026-04-24 20:45 51.20205 15.74590 25078 ft 377 kts 110°
2026-04-24 20:45 51.19186 15.78425 25078 ft 377 kts 111°
2026-04-24 20:45 51.18171 15.82232 25077 ft 376 kts 111°
2026-04-24 20:46 51.17141 15.86088 25078 ft 376 kts 110°
2026-04-24 20:46 51.16148 15.89916 25079 ft 376 kts 110°
2026-04-24 20:46 51.15160 15.93754 25074 ft 376 kts 109°
2026-04-24 20:46 51.14178 15.97566 25077 ft 376 kts 109°
2026-04-24 20:47 51.13176 16.01448 25073 ft 376 kts 109°
2026-04-24 20:47 51.12196 16.05239 25075 ft 376 kts 109°
2026-04-24 20:47 51.11196 16.09098 25073 ft 377 kts 109°
2026-04-24 20:47 51.10200 16.12937 25078 ft 377 kts 109°
2026-04-24 20:48 51.09202 16.16781 25077 ft 377 kts 109°
2026-04-24 20:48 51.08204 16.20616 25077 ft 377 kts 109°
2026-04-24 20:48 51.07205 16.24445 25075 ft 377 kts 109°
2026-04-24 20:48 51.06200 16.28294 25074 ft 377 kts 109°
2026-04-24 20:49 51.05204 16.32100 25071 ft 377 kts 109°
2026-04-24 20:49 51.04189 16.35974 25078 ft 377 kts 109°
2026-04-24 20:49 51.03186 16.39791 25078 ft 377 kts 109°
2026-04-24 20:49 51.02180 16.43620 25076 ft 377 kts 109°
2026-04-24 20:50 51.01177 16.47429 25078 ft 377 kts 109°
2026-04-24 20:50 51.00162 16.51272 25080 ft 377 kts 109°
2026-04-24 20:50 50.99146 16.55118 25080 ft 377 kts 109°
2026-04-24 20:50 50.98132 16.58946 25078 ft 377 kts 109°
2026-04-24 20:51 50.97124 16.62748 25077 ft 377 kts 109°
2026-04-24 20:51 50.96104 16.66586 25071 ft 377 kts 110°
2026-04-24 20:51 50.95087 16.70409 25071 ft 377 kts 110°
2026-04-24 20:51 50.94075 16.74205 25070 ft 377 kts 110°
2026-04-24 20:52 50.93059 16.78010 25065 ft 378 kts 110°
2026-04-24 20:52 50.92029 16.81860 25069 ft 377 kts 110°
2026-04-24 20:52 50.91015 16.85645 25067 ft 378 kts 110°
2026-04-24 20:52 50.89982 16.89497 25064 ft 378 kts 110°
2026-04-24 20:53 50.88952 16.93329 25061 ft 378 kts 110°
2026-04-24 20:53 50.87927 16.97135 25057 ft 377 kts 110°
2026-04-24 20:53 50.86912 17.00898 25054 ft 377 kts 110°
2026-04-24 20:53 50.85882 17.04711 25065 ft 376 kts 110°
2026-04-24 20:54 50.84859 17.08491 25058 ft 376 kts 110°
2026-04-24 20:54 50.83822 17.12318 25061 ft 376 kts 110°
2026-04-24 20:54 50.82788 17.16084 25059 ft 376 kts 110°
2026-04-24 20:54 50.81744 17.19876 25056 ft 376 kts 110°
2026-04-24 20:55 50.80701 17.23661 25061 ft 376 kts 110°
2026-04-24 20:55 50.79666 17.27404 25062 ft 376 kts 110°
2026-04-24 20:55 50.78619 17.31189 25055 ft 376 kts 110°
2026-04-24 20:55 50.77580 17.34941 25058 ft 376 kts 110°
2026-04-24 20:56 50.76534 17.38710 25062 ft 376 kts 110°
2026-04-24 20:56 50.75490 17.42468 25062 ft 376 kts 110°
2026-04-24 20:56 50.74436 17.46251 25061 ft 376 kts 110°
2026-04-24 20:56 50.73394 17.49992 25060 ft 376 kts 110°
2026-04-24 20:57 50.72357 17.53772 25064 ft 376 kts 110°
2026-04-24 20:57 50.71321 17.57551 25065 ft 376 kts 110°
2026-04-24 20:57 50.70291 17.61301 25065 ft 376 kts 110°
2026-04-24 20:57 50.69251 17.65083 25067 ft 376 kts 110°
2026-04-24 20:58 50.68212 17.68856 25058 ft 376 kts 110°
2026-04-24 20:58 50.67181 17.72592 25054 ft 376 kts 111°
2026-04-24 20:58 50.66134 17.76383 25064 ft 375 kts 110°
2026-04-24 20:58 50.65100 17.80117 25063 ft 375 kts 110°
2026-04-24 20:59 50.64051 17.83899 25063 ft 375 kts 110°
2026-04-24 20:59 50.63017 17.87627 25059 ft 375 kts 110°
2026-04-24 20:59 50.61970 17.91390 25057 ft 375 kts 110°
2026-04-24 20:59 50.60932 17.95089 25062 ft 375 kts 112°
2026-04-24 21:00 50.59720 17.98726 25072 ft 375 kts 116°
2026-04-24 21:00 50.58768 18.02515 24950 ft 371 kts 95°
2026-04-24 21:00 50.58553 18.06488 24855 ft 365 kts 87°
2026-04-24 21:00 50.58427 18.10451 24573 ft 361 kts 87°
2026-04-24 21:01 50.58307 18.14387 24289 ft 357 kts 87°
2026-04-24 21:01 50.58191 18.18240 24007 ft 353 kts 87°
2026-04-24 21:01 50.58077 18.22043 23718 ft 350 kts 87°
2026-04-24 21:01 50.57962 18.25855 23428 ft 347 kts 87°
2026-04-24 21:02 50.57847 18.29615 23142 ft 345 kts 87°
2026-04-24 21:02 50.57731 18.33369 22851 ft 343 kts 87°
2026-04-24 21:02 50.57616 18.37054 22560 ft 342 kts 87°
2026-04-24 21:02 50.57498 18.40799 22270 ft 340 kts 87°
2026-04-24 21:03 50.57377 18.44506 21987 ft 339 kts 88°
2026-04-24 21:03 50.57244 18.48154 21708 ft 339 kts 88°
2026-04-24 21:03 50.57108 18.51847 21427 ft 338 kts 88°
2026-04-24 21:03 50.56972 18.55500 21144 ft 337 kts 88°
2026-04-24 21:04 50.56835 18.59162 20865 ft 336 kts 88°
2026-04-24 21:04 50.56697 18.62798 20594 ft 336 kts 88°
2026-04-24 21:04 50.56557 18.66490 20315 ft 335 kts 89°
2026-04-24 21:04 50.56419 18.70084 20046 ft 334 kts 89°
2026-04-24 21:05 50.56352 18.73706 19770 ft 332 kts 84°
2026-04-24 21:05 50.56374 18.77319 19504 ft 331 kts 84°
2026-04-24 21:05 50.56393 18.80928 19228 ft 331 kts 84°
2026-04-24 21:05 50.56410 18.84530 18959 ft 330 kts 84°
2026-04-24 21:06 50.56426 18.88128 18710 ft 329 kts 84°
2026-04-24 21:06 50.56439 18.91712 18443 ft 328 kts 84°
2026-04-24 21:06 50.56452 18.95311 18181 ft 328 kts 85°
2026-04-24 21:06 50.56463 18.98875 17930 ft 327 kts 84°
2026-04-24 21:07 50.56473 19.02408 17685 ft 325 kts 84°
2026-04-24 21:07 50.56483 19.05965 17435 ft 324 kts 84°
2026-04-24 21:07 50.56491 19.09496 17189 ft 323 kts 84°
2026-04-24 21:07 50.56493 19.12968 16951 ft 322 kts 85°
2026-04-24 21:08 50.56478 19.16477 16712 ft 321 kts 85°
2026-04-24 21:08 50.56462 19.19983 16476 ft 320 kts 85°
2026-04-24 21:08 50.56445 19.23476 16240 ft 319 kts 85°
2026-04-24 21:08 50.56427 19.26984 16007 ft 318 kts 85°
2026-04-24 21:09 50.56408 19.30411 15769 ft 318 kts 85°
2026-04-24 21:09 50.56392 19.33899 15537 ft 317 kts 85°
2026-04-24 21:09 50.56381 19.37326 15310 ft 316 kts 85°
2026-04-24 21:09 50.56376 19.40790 14993 ft 316 kts 84°
2026-04-24 21:10 50.56376 19.44204 14589 ft 318 kts 84°
2026-04-24 21:10 50.56382 19.47662 14182 ft 318 kts 84°
2026-04-24 21:10 50.56392 19.51129 13782 ft 318 kts 84°
2026-04-24 21:10 50.56407 19.54583 13383 ft 311 kts 84°
2026-04-24 21:11 50.56418 19.57919 12968 ft 302 kts 84°
2026-04-24 21:11 50.56427 19.61164 12556 ft 294 kts 84°
2026-04-24 21:11 50.56436 19.64345 12136 ft 288 kts 85°
2026-04-24 21:11 50.56445 19.67445 11714 ft 284 kts 85°
2026-04-24 21:12 50.56455 19.70495 11296 ft 280 kts 86°
2026-04-24 21:12 50.56463 19.72516 11015 ft 278 kts 86°
2026-04-24 21:12 50.56148 19.76474 10415 ft 280 kts 114°
2026-04-24 21:12 50.54859 19.78731 9952 ft 278 kts 150°
2026-04-24 21:13 50.53062 19.79481 9503 ft 270 kts 184°
2026-04-24 21:13 50.51196 19.79337 9111 ft 265 kts 187°
2026-04-24 21:13 50.49408 19.79170 9025 ft 250 kts 187°
2026-04-24 21:13 50.47724 19.79014 9011 ft 234 kts 187°
2026-04-24 21:14 50.46066 19.78858 9031 ft 247 kts 187°
2026-04-24 21:14 50.44313 19.78692 9037 ft 260 kts 187°
2026-04-24 21:14 50.42483 19.78519 9038 ft 270 kts 187°
2026-04-24 21:14 50.40581 19.78339 9040 ft 277 kts 187°
2026-04-24 21:15 50.38623 19.78569 9002 ft 289 kts 166°
2026-04-24 21:15 50.36769 19.79728 9034 ft 293 kts 157°
2026-04-24 21:15 50.34915 19.81120 9001 ft 297 kts 155°
2026-04-24 21:15 50.33064 19.82552 8847 ft 304 kts 155°
2026-04-24 21:16 50.31133 19.84054 8645 ft 311 kts 155°
2026-04-24 21:16 50.29265 19.85512 8402 ft 290 kts 155°
2026-04-24 21:16 50.27526 19.86870 8127 ft 272 kts 156°
2026-04-24 21:16 50.25869 19.88162 7839 ft 259 kts 156°
2026-04-24 21:17 50.24297 19.89387 7558 ft 249 kts 156°
2026-04-24 21:17 50.22790 19.90561 7262 ft 241 kts 156°
2026-04-24 21:17 50.21305 19.91716 7045 ft 229 kts 156°
2026-04-24 21:17 50.19989 19.92910 7000 ft 213 kts 137°
2026-04-24 21:18 50.19383 19.94842 7008 ft 191 kts 94°
2026-04-24 21:18 50.19454 19.96778 7008 ft 170 kts 78°
2026-04-24 21:18 50.19636 19.98515 7016 ft 165 kts 75°
2026-04-24 21:18 50.19874 20.00406 7073 ft 193 kts 75°
2026-04-24 21:19 50.20159 20.02586 7073 ft 218 kts 75°
2026-04-24 21:19 50.20477 20.04989 7026 ft 232 kts 75°
2026-04-24 21:19 50.20811 20.07480 7009 ft 238 kts 75°
2026-04-24 21:19 50.21159 20.10061 7002 ft 243 kts 75°
2026-04-24 21:20 50.21861 20.15289 7019 ft 250 kts 75°
2026-04-24 21:20 50.22216 20.17938 7039 ft 252 kts 75°
2026-04-24 21:20 50.22579 20.20624 7044 ft 254 kts 75°
2026-04-24 21:21 50.22935 20.23278 6946 ft 241 kts 75°
2026-04-24 21:21 50.23271 20.25775 6803 ft 230 kts 75°
2026-04-24 21:21 50.23591 20.28176 6549 ft 227 kts 77°
2026-04-24 21:21 50.23354 20.30609 6179 ft 233 kts 119°
2026-04-24 21:22 50.22198 20.32247 5819 ft 227 kts 161°
2026-04-24 21:22 50.20674 20.32791 5479 ft 222 kts 172°
2026-04-24 21:22 50.19171 20.33258 5152 ft 221 kts 172°
2026-04-24 21:22 50.17674 20.33739 4819 ft 219 kts 172°
2026-04-24 21:23 50.16230 20.33538 4455 ft 207 kts 212°
2026-04-24 21:23 50.15306 20.31973 4124 ft 193 kts 250°
2026-04-24 21:23 50.14902 20.30043 3871 ft 187 kts 257°
2026-04-24 21:23 50.14588 20.28076 3607 ft 184 kts 259°
2026-04-24 21:24 50.14313 20.26161 3350 ft 182 kts 261°
2026-04-24 21:24 50.14046 20.24236 3089 ft 179 kts 261°
2026-04-24 21:24 50.13795 20.22398 3023 ft 167 kts 261°
2026-04-24 21:24 50.13565 20.20707 3009 ft 153 kts 262°
2026-04-24 21:25 50.13351 20.19128 3023 ft 152 kts 261°
2026-04-24 21:25 50.13119 20.17403 3054 ft 175 kts 261°
2026-04-24 21:25 50.12853 20.15443 3051 ft 194 kts 261°
2026-04-24 21:25 50.12580 20.13442 3021 ft 181 kts 261°
2026-04-24 21:26 50.12331 20.11607 3016 ft 169 kts 261°
2026-04-24 21:26 50.12094 20.09867 3012 ft 159 kts 261°
2026-04-24 21:26 50.11875 20.08248 3011 ft 150 kts 261°
2026-04-24 21:26 50.11663 20.06693 3018 ft 145 kts 261°
2026-04-24 21:27 50.11456 20.05171 3020 ft 140 kts 261°
2026-04-24 21:27 50.11256 20.03707 3018 ft 136 kts 261°
2026-04-24 21:27 50.11063 20.02289 3019 ft 131 kts 261°
2026-04-24 21:27 50.10882 20.00977 3001 ft 117 kts 262°
2026-04-24 21:28 50.10720 19.99806 3053 ft 112 kts 261°
2026-04-24 21:28 50.10549 19.98556 3057 ft 121 kts 261°
2026-04-24 21:28 50.10368 19.97232 3007 ft 129 kts 261°
2026-04-24 21:28 50.10180 19.95863 2858 ft 128 kts 262°
2026-04-24 21:29 50.09998 19.94533 2695 ft 124 kts 262°
2026-04-24 21:29 50.09822 19.93260 2529 ft 114 kts 262°
2026-04-24 21:29 50.09665 19.92127 2365 ft 100 kts 263°
2026-04-24 21:29 50.09519 19.91074 2266 ft 100 kts 262°
2026-04-24 21:30 50.09370 19.89999 2136 ft 103 kts 263°
2026-04-24 21:30 50.09217 19.88895 1993 ft 106 kts 262°
2026-04-24 21:30 50.09055 19.87766 1837 ft 106 kts 261°
2026-04-24 21:30 50.08878 19.86648 1654 ft 107 kts 263°
2026-04-24 21:31 50.08732 19.85524 1550 ft 107 kts 263°
2026-04-24 21:31 50.08581 19.84381 1360 ft 107 kts 263°
2026-04-24 21:31 50.08426 19.83240 1227 ft 109 kts 262°
2026-04-24 21:31 50.08277 19.82098 1045 ft 103 kts 261°
2026-04-24 21:32 50.08119 19.81000 940 ft 106 kts 260°
2026-04-24 21:32 50.07961 19.79876 814 ft 106 kts 260°
2026-04-24 21:32 50.07821 19.78837 795 ft 82 kts 261°
2026-04-24 21:32 50.07740 19.78223 795 ft 28 kts 252°
2026-04-24 21:33 50.07681 19.78112 795 ft 12 kts 194°
2026-04-24 21:33 50.07628 19.78095 795 ft 3 kts 187°
2026-04-24 21:33 50.07516 19.78084 795 ft 17 kts 181°
2026-04-24 21:33 50.07478 19.78179 795 ft 15 kts 76°
2026-04-24 21:34 50.07505 19.78367 795 ft 14 kts 76°
2026-04-24 21:34 50.07533 19.78537 795 ft 18 kts 82°
2026-04-24 21:34 50.07552 19.78715 795 ft 15 kts 77°
2026-04-24 21:34 50.07576 19.78882 795 ft 17 kts 79°
2026-04-24 21:35 50.07595 19.79015 795 ft 13 kts 78°
2026-04-24 21:35 50.07615 19.79154 795 ft 11 kts 81°
2026-04-24 21:35 50.07634 19.79309 795 ft 13 kts 76°
2026-04-24 21:35 50.07657 19.79457 795 ft 16 kts 78°
2026-04-24 21:36 50.07671 19.79564 795 ft 11 kts 80°
2026-04-24 21:36 50.07685 19.79659 795 ft 3 kts 86°
2026-04-24 21:36 50.07655 19.79694 795 ft 7 kts 173°
2026-04-24 21:36 50.07600 19.79706 795 ft 7 kts 169°
2026-04-24 21:37 50.07552 19.79728 795 ft 0 kts 159°
2026-04-24 21:37 50.07525 19.79743 795 ft 7 kts 163°
2026-04-24 21:37 50.07489 19.79724 795 ft 5 kts 272°
2026-04-24 21:37 50.07485 19.79675 795 ft 6 kts 255°
2026-04-24 21:38 50.07484 19.79670 795 ft 0 kts 255°